Whiteman AFB, MO

1:25 PM CDT on April 23, 2018 (GMT -0500)
Whiteman Air Force Base

Weather History for KSZL - March, 2014

Change the Weather History Date:

Wednesday, March 12, 2014

  Actual Average Record
Temperature  
Mean Temperature 40 °F -  
Max Temperature 49 °F 49 °F 76 °F (2008)
Min Temperature 32 °F 30 °F 3 °F (1998)
Degree Days  
Heating Degree Days 24    
Moisture  
Dew Point 28 °F    
Average Humidity 71    
Maximum Humidity 100    
Minimum Humidity 37    
Precipitation  
Precipitation 0.07 in - - ()
Sea Level Pressure  
Sea Level Pressure 30.06 in    
Wind  
Wind Speed 19 mph (NNW)    
Max Wind Speed 30 mph    
Max Gust Speed 36 mph    
Visibility 9 miles    
Events Rain , Snow    
Averages and records for this station are not official NWS values.
T = Trace of Precipitation, MM = Missing Value Source: NWS Daily Summary

Daily Weather History Graph

Daily Weather History Graph

Search for Another Location

Airport or City:

Astronomy

Mar. 12, 2014 Rise Set
Actual Time 7:30 AM CDT 7:18 PM CDT
Civil Twilight 7:03 AM CDT 7:44 PM CDT
Nautical Twilight 6:32 AM CDT 8:15 PM CDT
Astronomical Twilight 6:01 AM CDT 8:46 PM CDT
Moon 3:51 PM CDT (3/12) 5:00 AM CDT (3/12)
Length of Visible Light 12h 41m
Length of Day
11h 48m
Waxing Gibbous, 85% of the Moon is Illuminated
Mar 12
Waxing Gibbous
Mar 16
Full
Mar 23
Last Quarter
Mar 30
New
Apr 7
First Quarter

Hourly Weather History & Observations

Time (CDT) Temp. Windchill Dew Point Humidity Pressure Visibility Wind Dir Wind Speed Gust Speed Precip Events Conditions
12:17 AM 33.8 °F 20.3 °F 32.0 °F 93% 29.80 in 4.0 mi North 28.8 mph 34.5 mph N/A Rain Rain
12:31 AM 33.8 °F 22.5 °F 32.0 °F 93% 29.82 in 5.0 mi North 19.6 mph 33.4 mph N/A Rain , Snow Rain
12:36 AM 32.0 °F 18.9 °F 32.0 °F 100% 29.83 in 3.0 mi North 24.2 mph 33.4 mph N/A Snow Snow
12:58 AM 33.1 °F 19.1 °F 31.3 °F 93% 29.86 in 1.8 mi North 29.9 mph 35.7 mph 0.04 in Snow Light Snow
1:08 AM 32.0 °F 18.1 °F 32.0 °F 100% 29.87 in 4.0 mi North 27.6 mph 35.7 mph N/A Rain , Snow Light Rain
1:58 AM 32.9 °F 21.3 °F 31.5 °F 94% 29.92 in 4.0 mi North 19.6 mph 27.6 mph 0.03 in Snow Light Snow
2:23 AM 32.0 °F 20.5 °F 32.0 °F 100% 29.93 in 8.0 mi NNW 18.4 mph 29.9 mph N/A Snow Light Snow
2:39 AM 32.0 °F 20.1 °F 32.0 °F 100% 29.94 in 6.0 mi NNW 19.6 mph 27.6 mph N/A Snow Light Snow
2:58 AM 33.8 °F 22.5 °F 31.5 °F 91% 29.96 in 10.0 mi NNW 19.6 mph 27.6 mph 0.00 in   Mostly Cloudy
3:25 AM 33.8 °F 24.8 °F 32.0 °F 93% 29.96 in 10.0 mi NNW 12.7 mph - N/A   Mostly Cloudy
3:58 AM 34.7 °F 25.1 °F 30.9 °F 86% 29.98 in 10.0 mi NNW 15.0 mph - 0.00 in   Overcast
4:58 AM 35.2 °F 25.4 °F 28.8 °F 77% 29.99 in 10.0 mi NNW 16.1 mph 20.7 mph N/A   Overcast
5:58 AM 34.7 °F 24.0 °F 28.0 °F 77% 30.02 in 10.0 mi NNW 18.4 mph 26.5 mph N/A   Scattered Clouds
6:58 AM 33.4 °F 21.4 °F 26.4 °F 75% 30.06 in 10.0 mi NNW 21.9 mph 27.6 mph N/A   Partly Cloudy
7:58 AM 32.4 °F 22.1 °F 25.3 °F 75% 30.10 in 10.0 mi NNW 15.0 mph 24.2 mph N/A   Clear
8:58 AM 32.9 °F 21.6 °F 25.3 °F 74% 30.15 in 10.0 mi NNW 18.4 mph 26.5 mph N/A   Clear
9:58 AM 35.1 °F 25.2 °F 25.5 °F 68% 30.18 in 10.0 mi NNW 16.1 mph - N/A   Clear
10:58 AM 37.2 °F 27.3 °F 25.3 °F 62% 30.19 in 10.0 mi NNW 18.4 mph 26.5 mph N/A   Clear
11:58 AM 40.6 °F 33.4 °F 25.9 °F 56% 30.18 in 10.0 mi NW 12.7 mph - N/A   Clear
12:58 PM 43.3 °F 35.8 °F 26.8 °F 52% 30.19 in 10.0 mi NW 16.1 mph - N/A   Clear
1:25 PM 44.6 °F 37.2 °F 26.6 °F 49% 30.15 in 10.0 mi WNW 17.3 mph - N/A   Clear
1:34 PM 44.6 °F 38.1 °F 26.6 °F 49% 30.15 in 10.0 mi NNW 13.8 mph - N/A   Clear
1:58 PM 45.9 °F 39.1 °F 26.2 °F 46% 30.18 in 10.0 mi NW 16.1 mph 25.3 mph N/A   Partly Cloudy
2:58 PM 47.5 °F - 26.8 °F 45% 30.16 in 10.0 mi NW 17.3 mph - N/A   Scattered Clouds
3:58 PM 48.0 °F - 25.5 °F 41% 30.14 in 10.0 mi NW 16.1 mph 21.9 mph N/A   Scattered Clouds
4:58 PM 48.9 °F - 25.0 °F 39% 30.13 in 10.0 mi NNW 9.2 mph - N/A   Scattered Clouds
5:58 PM 49.5 °F - 24.3 °F 37% 30.13 in 10.0 mi NW 10.4 mph - N/A   Scattered Clouds
6:58 PM 46.8 °F - 26.4 °F 45% 30.14 in 10.0 mi North 11.5 mph - N/A   Mostly Cloudy
7:58 PM 43.9 °F - 26.8 °F 51% 30.15 in 10.0 mi NNE 2.3 mph - N/A   Mostly Cloudy
8:58 PM 39.4 °F - 29.1 °F 67% 30.16 in 10.0 mi Calm Calm - N/A   Scattered Clouds
9:58 PM 36.7 °F 34.1 °F 26.4 °F 66% 30.16 in 10.0 mi SSW 3.5 mph - N/A   Clear
10:58 PM 32.5 °F 28.1 °F 25.3 °F 75% 30.16 in 10.0 mi South 4.6 mph - N/A   Scattered Clouds
11:58 PM 34.0 °F 28.0 °F 25.2 °F 70% 30.15 in 10.0 mi SSW 6.9 mph - N/A   Clear